Temperature
26 24 24 25 25 25 24 24 24 24 24 23 23 22 22 22 21 21 21 21 21 21 21 20 20 20 20 19 19 19 18 18 18 18 18 18 18 18 17 17 17 17 17 17
24 25 26 26 25 25 25 24 24 24 24 24 23 22 22 22 21 22 21 21 21 21 21 21 20 20 20 20 19 19 19 18 18 18 18 18 18 17 17 17 17 17 17 17
26 26 26 26 26 26 25 24 24 24 24 23 23 22 22 22 22 22 22 22 22 22 22 21 21 21 20 20 20 19 19 19 18 18 18 18 18 17 17 17 17 17 17 17
25 26 26 26 26 26 25 25 25 24 23 21 23 21 21 21 20 21 21 21 22 22 22 22 21 21 21 20 20 20 19 19 19 18 18 18 18 18 18 18 17 17 17 17
25 26 26 26 26 26 25 25 24 23 22 21 21 21 21 20 20 20 21 21 22 22 22 22 22 22 21 21 21 20 20 19 19 19 18 18 18 18 18 18 17 17 17 17
25 26 26 26 26 26 25 23 22 20 20 21 21 21 21 20 21 21 21 22 22 22 22 22 22 22 21 21 21 21 20 20 19 19 19 19 18 18 18 18 18 18 18 17
25 26 26 26 26 25 24 22 21 22 20 21 20 21 20 21 21 21 22 22 23 23 23 23 22 22 22 22 21 21 21 20 20 19 19 19 19 18 18 18 18 18 18 18
24 24 25 26 25 24 23 22 21 22 21 20 20 21 21 22 22 22 23 23 23 23 23 23 23 23 22 22 22 22 21 21 20 20 19 19 19 19 18 18 18 18 18 18
22 23 25 25 25 24 23 21 21 19 20 20 20 20 21 21 21 21 22 22 22 23 23 23 24 23 23 23 22 22 22 21 21 20 20 20 19 19 19 18 18 18 18 18
22 24 25 25 25 23 23 20 19 19 20 21 22 21 21 22 21 20 20 21 22 23 23 23 24 24 23 23 23 22 22 21 21 21 20 20 20 19 19 18 18 18 18 18
22 23 24 24 24 23 22 21 18 17 19 20 21 21 21 21 21 20 20 22 22 23 23 23 24 23 23 23 23 22 22 22 21 21 20 20 20 19 19 19 19 18 18 18
20 19 21 23 23 23 23 21 19 21 20 18 19 21 22 20 20 20 21 22 22 23 23 23 23 23 23 23 23 23 22 22 22 21 21 20 20 20 19 19 19 19 18 18
20 19 21 22 22 22 22 21 19 18 17 17 19 22 21 20 20 21 21 22 22 23 23 23 23 23 23 23 23 22 22 22 22 21 21 20 20 20 20 19 19 19 19 18
19 18 20 22 21 22 22 21 19 19 18 18 19 21 21 20 19 20 21 21 22 22 22 23 23 23 23 23 22 22 22 22 21 21 21 21 20 20 20 19 19 19 19 18
19 19 19 20 21 21 22 22 20 20 19 20 20 20 20 19 19 20 20 21 21 22 22 22 23 23 22 22 22 22 22 22 22 22 21 21 20 20 20 19 19 19 19 18
16 18 19 21 21 21 22 21 21 21 20 20 20 20 19 19 19 19 19 20 20 21 21 22 22 22 22 22 22 22 22 22 22 22 21 21 21 20 20 19 19 19 19 18
15 17 18 19 20 22 21 21 20 20 20 20 20 19 18 18 18 19 19 20 20 21 21 21 22 22 22 22 22 22 22 22 21 21 21 21 20 20 19 19 19 19 18 18
16 15 15 17 20 21 20 20 20 19 19 18 18 18 18 18 19 20 20 20 20 21 21 21 22 22 22 21 21 21 21 21 21 21 21 20 20 20 19 19 19 19 18 18
14 15 15 16 18 19 20 20 19 19 19 18 18 18 18 19 19 19 19 20 20 21 21 21 21 22 21 21 21 21 21 21 20 20 20 20 20 20 19 19 19 19 18 18
14 14 15 16 18 19 19 19 19 19 18 18 18 17 18 18 18 18 19 20 20 20 20 21 21 21 21 21 21 20 20 20 20 20 19 19 19 19 19 19 19 18 18 18
16 15 15 16 17 18 18 18 19 19 19 18 18 18 18 17 18 19 19 19 20 20 20 20 20 20 20 20 20 20 19 19 19 19 19 19 19 18 18 18 18 18 17 17
15 15 15 14 17 17 17 17 17 17 17 17 18 18 18 18 18 18 19 19 19 19 19 19 19 20 19 19 19 19 19 19 18 18 18 18 18 18 18 18 17 17 17 17
13 14 13 14 15 15 16 16 17 17 17 17 17 18 18 18 17 18 18 18 18 19 19 18 18 18 18 19 19 19 19 18 18 18 18 18 18 17 17 17 17 17 16 16
13 12 12 13 14 15 16 16 17 17 17 17 18 18 18 18 17 17 18 18 18 18 18 18 18 18 18 18 18 18 18 18 17 17 17 18 17 17 17 17 17 16 16 16
13 12 12 13 14 15 16 16 16 17 17 17 17 17 18 17 17 17 17 17 17 17 17 17 17 17 17 17 17 17 17 17 17 17 17 17 17 17 17 16 16 16 16 16
12 12 13 13 14 13 15 16 16 16 16 17 17 17 17 17 17 17 16 16 17 17 17 17 17 16 16 16 16 16 16 16 16 16 16 16 17 16 16 16 16 15 15 15
Wind_Speed
4 5 2 5 7 6 6 5 3 3 3 5 4 3 5 9 9 9 8 9 9 9 6 5 5 6 5 5 5 4 4 4 3 2 2 1 0 0 1 0 0 1 3 4
5 1 5 4 3 5 5 4 2 0 2 4 3 2 3 7 10 10 11 11 10 8 6 6 6 6 6 5 5 5 4 4 4 3 2 2 2 1 0 0 1 0 2 3
5 5 3 4 3 3 2 5 5 4 3 4 3 3 2 3 4 5 7 8 9 11 10 8 7 7 6 6 7 6 5 4 4 3 3 2 2 2 1 1 1 0 1 2
4 4 3 3 2 4 2 4 5 6 6 1 2 2 5 3 3 6 8 9 11 10 9 9 8 8 8 8 6 6 5 4 4 4 4 4 3 2 2 1 1 1 1 2
4 3 3 3 4 5 3 3 5 5 6 3 2 2 7 1 4 8 9 10 11 11 11 11 10 10 8 7 7 6 5 4 4 4 5 4 3 2 1 1 1 1 0 1
4 3 4 5 2 5 7 8 8 7 5 1 2 3 6 4 7 6 9 10 9 10 11 10 8 7 7 6 6 6 5 4 4 5 5 5 5 4 3 2 1 1 0 0
2 2 2 3 4 4 6 7 4 4 4 4 1 2 8 7 6 7 8 10 9 9 10 10 10 9 8 8 8 7 6 5 5 5 5 5 6 5 5 3 3 2 1 1
5 5 4 4 6 7 5 9 8 6 5 4 1 4 7 5 4 3 4 6 7 8 9 11 12 11 10 10 9 8 7 6 5 6 5 4 5 4 3 3 3 3 2 2
8 6 4 2 3 9 7 4 7 7 3 0 4 6 7 3 3 1 2 4 6 8 9 10 10 10 10 10 10 10 9 7 6 6 6 5 4 4 4 3 3 2 2 2
9 4 3 2 5 5 6 9 7 6 6 3 4 4 5 6 6 3 3 5 6 6 8 8 8 9 9 9 8 8 8 8 7 6 6 5 5 5 5 4 3 3 2 2
6 5 1 2 4 5 5 5 6 6 6 7 4 7 6 8 7 7 7 6 6 6 7 7 7 8 8 7 7 8 7 6 6 6 6 5 5 5 5 4 3 3 2 3
4 6 2 4 3 2 5 8 8 6 5 5 5 7 5 5 6 6 5 4 4 5 5 5 5 5 6 7 7 7 8 7 7 6 6 6 5 5 5 4 4 4 3 3
6 6 3 4 4 2 3 4 4 7 6 6 5 7 3 1 1 2 3 3 3 4 4 4 4 4 5 6 6 7 7 7 6 7 7 6 6 6 5 5 4 4 4 3
6 5 6 9 7 4 2 3 5 6 5 6 7 6 5 3 1 1 2 3 4 4 4 4 4 4 4 4 5 6 6 6 7 7 7 7 7 7 6 5 4 4 4 4
5 4 3 2 3 4 3 3 6 5 7 8 8 6 6 5 3 1 1 3 3 3 3 4 4 4 3 3 3 4 5 5 6 7 7 7 6 6 6 5 4 4 4 3
4 5 3 1 1 2 2 1 4 3 3 4 3 3 4 1 2 3 3 3 3 2 2 3 3 3 3 4 4 4 4 5 5 6 7 6 6 6 6 6 5 4 4 3
3 5 4 2 1 3 1 2 2 2 1 5 6 5 2 2 2 2 2 3 2 1 1 2 3 4 4 5 5 5 5 4 5 6 6 7 7 7 7 7 6 5 5 4
6 5 4 3 3 3 5 2 3 4 0 1 2 2 4 4 3 2 2 3 1 1 0 0 1 2 2 3 3 3 3 4 5 5 5 6 7 7 7 6 6 6 5 5
4 7 5 4 4 1 3 1 1 3 1 1 2 2 2 2 3 3 1 1 1 1 1 1 1 2 2 2 2 3 3 4 4 4 5 5 6 6 6 7 7 6 5 5
6 5 5 4 5 6 6 3 1 4 1 2 2 3 2 3 2 2 2 1 2 2 1 1 1 2 2 2 3 3 3 3 4 4 4 4 5 6 7 7 6 4 4 5
4 4 4 4 3 5 4 4 1 4 5 2 1 2 3 2 3 2 1 1 1 1 2 2 2 2 1 2 3 3 2 3 4 3 3 3 4 5 6 5 5 4 4 4
4 4 3 4 3 5 3 1 3 4 1 1 1 1 2 2 2 1 1 1 1 2 2 2 2 2 1 2 3 2 2 3 2 3 3 3 3 4 4 4 4 4 4 4
2 4 5 5 4 3 2 1 1 2 2 1 1 1 3 3 2 1 0 0 1 0 1 1 1 1 1 0 2 2 3 1 2 2 3 2 3 3 3 4 5 4 4 4
1 1 3 1 2 3 3 2 2 1 1 1 2 2 2 2 1 1 0 1 1 1 1 0 1 1 2 2 1 2 2 1 3 3 3 3 3 3 3 3 4 4 5 5
1 2 2 0 2 3 3 2 1 2 2 2 1 1 2 2 0 1 1 1 1 1 1 1 0 1 2 2 2 3 2 3 3 3 3 3 3 4 4 3 3 4 5 6
2 4 4 5 5 3 4 3 1 1 1 1 1 2 2 1 0 1 2 2 2 2 2 1 1 2 3 3 3 3 3 4 4 3 3 3 3 3 3 3 2 1 2 3
Wind_Direction
42 74 166 213 197 185 165 163 191 233 172 147 183 204 193 181 181 188 193 195 197 207 206 190 184 169 159 159 158 164 163 163 146 128 130 123 154 355 17 336 268 180 179 172
44 274 230 196 165 140 143 145 187 3 118 144 166 232 201 187 195 198 197 200 202 202 193 188 182 174 171 174 176 178 182 176 172 158 146 145 138 134 147 2 25 160 169 171
183 230 183 135 121 129 152 174 192 168 102 68 95 342 260 227 196 202 203 201 201 201 198 193 187 186 178 184 188 192 192 187 182 163 128 106 85 61 52 23 348 332 176 178
216 235 155 126 172 154 231 212 170 140 118 42 95 272 287 238 216 216 213 205 207 205 196 193 189 188 192 197 188 183 184 185 178 163 160 163 166 180 205 196 239 311 182 172
227 186 156 186 214 163 180 96 102 109 113 74 45 137 290 287 237 233 222 214 211 204 195 195 194 194 195 192 183 179 174 185 180 170 172 169 175 184 173 149 192 297 308 186
227 219 187 192 161 134 117 75 59 53 70 37 244 160 279 242 232 232 218 214 207 199 193 193 188 181 186 185 181 174 174 192 184 177 177 177 181 180 173 184 205 240 260 285
295 278 235 154 103 72 97 93 47 15 13 251 253 178 250 256 240 220 211 208 201 190 187 185 182 184 187 186 187 180 179 196 192 185 189 188 188 183 189 198 203 201 202 226
179 256 232 184 168 168 162 138 155 184 211 263 313 232 253 269 271 240 204 191 182 181 186 189 191 191 192 194 192 186 187 197 193 191 195 186 182 185 195 198 196 197 205 211
173 231 276 216 166 139 136 153 152 132 139 146 277 281 299 288 306 261 173 166 186 190 189 192 192 190 192 194 193 190 189 196 194 194 187 179 177 183 190 190 183 184 195 190
155 196 272 282 86 48 134 139 108 122 145 213 280 272 251 255 245 230 202 197 199 187 187 193 194 192 192 193 191 187 189 197 195 191 194 189 178 185 187 180 181 184 187 171
141 156 298 54 153 173 107 103 110 119 149 159 218 264 229 222 220 210 213 204 192 188 187 192 195 190 183 178 179 185 190 190 188 189 188 180 177 176 173 177 188 186 180 172
135 130 191 254 269 185 156 160 148 152 191 171 174 257 276 221 217 205 212 200 185 174 172 175 175 169 175 181 184 187 193 193 192 185 182 184 177 170 174 182 188 180 177 177
132 119 114 342 340 18 111 136 140 125 120 149 169 256 311 329 224 198 186 179 167 155 145 143 142 163 182 184 184 189 193 198 194 182 181 181 181 179 186 189 185 178 178 174
121 112 162 192 207 190 171 150 146 125 140 180 212 238 296 308 289 275 167 167 161 156 153 153 160 177 183 182 185 192 196 193 187 181 179 187 193 192 190 186 181 180 180 176
104 127 155 188 176 157 172 166 163 166 173 177 212 212 252 250 239 221 134 128 122 134 153 168 176 182 181 185 189 196 198 192 184 181 188 199 197 191 181 180 182 181 184 188
75 122 116 80 102 142 122 103 164 174 166 183 172 241 270 251 101 87 95 103 107 134 182 176 171 172 183 196 198 195 203 200 184 187 198 196 191 190 185 188 185 180 184 188
80 115 110 186 296 75 336 291 174 156 207 171 191 218 167 116 126 146 131 114 128 160 170 173 188 191 198 206 198 197 201 184 182 196 195 191 190 193 194 192 183 190 197 196
127 105 114 121 96 182 250 284 144 131 75 159 177 183 166 161 160 137 137 150 155 134 152 201 200 206 215 210 203 187 168 167 178 192 198 195 192 194 191 186 191 197 197 197
137 130 116 119 137 223 284 275 163 139 344 3 153 144 138 113 67 22 357 112 167 183 197 204 212 199 173 179 169 145 160 162 174 199 205 203 197 195 192 194 200 201 196 203
63 91 113 123 139 204 231 279 289 118 295 290 160 145 124 92 84 283 321 4 12 9 27 56 90 102 109 131 135 132 153 167 196 211 212 208 199 199 203 204 201 198 194 202
57 58 104 136 164 242 263 295 73 155 230 269 168 155 126 147 202 232 325 1 4 2 11 37 65 83 102 124 126 138 156 204 219 206 194 192 195 203 207 203 197 188 182 185
144 131 151 137 154 235 305 71 151 206 225 125 104 121 122 140 135 123 58 35 26 24 24 32 52 41 49 127 141 163 211 226 193 180 186 194 202 205 204 191 191 183 180 188
138 178 173 175 198 263 301 187 204 165 129 98 127 145 132 126 139 181 203 108 63 47 12 23 69 18 343 192 154 204 243 205 170 179 199 205 208 202 191 191 190 184 188 198
18 91 108 79 306 309 333 12 25 82 123 124 132 135 133 144 197 223 276 340 350 357 333 14 71 29 317 298 232 231 235 192 189 200 218 220 199 195 197 206 193 190 197 206
225 95 92 93 272 336 346 358 51 68 69 65 56 93 115 119 272 288 310 309 310 314 319 331 233 249 275 288 282 254 223 194 202 211 211 207 198 194 200 207 203 203 212 210
220 176 167 211 223 198 257 274 244 91 337 315 4 5 22 100 39 345 308 301 299 299 295 288 281 273 273 273 276 265 228 202 199 212 216 215 212 205 200 199 209 214 207 198
Height
1491 1498 1504 1502 1500 1502 1507 1513 1516 1513 1508 1512 1516 1517 1516 1516 1518 1520 1522 1524 1526 1527 1530 1532 1533 1534 1536 1537 1537 1538 1539 1540 1541 1542 1543 1544 1545 1546 1547 1547 1548 1549 1550 1551
1497 1501 1495 1494 1496 1500 1505 1513 1515 1511 1508 1512 1517 1517 1514 1515 1516 1517 1519 1521 1523 1525 1528 1530 1532 1533 1534 1536 1537 1538 1539 1540 1541 1542 1543 1544 1545 1545 1546 1547 1548 1549 1550 1551
1498 1496 1491 1494 1498 1502 1506 1511 1512 1513 1511 1512 1517 1522 1517 1514 1515 1516 1518 1519 1521 1523 1525 1527 1530 1531 1533 1535 1536 1537 1538 1539 1540 1541 1542 1543 1544 1545 1546 1547 1548 1549 1549 1550
1493 1490 1491 1494 1497 1499 1509 1501 1503 1509 1519 1528 1523 1539 1522 1516 1515 1514 1515 1516 1517 1520 1523 1525 1527 1530 1532 1533 1535 1536 1537 1538 1539 1540 1541 1542 1543 1544 1545 1546 1547 1548 1549 1550
1493 1490 1491 1495 1494 1495 1500 1498 1504 1511 1520 1530 1528 1536 1529 1518 1517 1513 1511 1512 1513 1516 1519 1522 1525 1527 1530 1532 1534 1535 1536 1537 1539 1540 1541 1542 1543 1544 1545 1546 1547 1548 1549 1549
1488 1486 1487 1488 1488 1491 1496 1504 1511 1520 1528 1541 1532 1537 1534 1521 1513 1507 1506 1508 1510 1513 1516 1519 1523 1526 1528 1530 1532 1534 1535 1536 1538 1539 1540 1541 1542 1543 1544 1545 1546 1547 1548 1548
1492 1488 1485 1485 1492 1495 1499 1517 1538 1542 1550 1546 1532 1534 1529 1508 1503 1502 1502 1504 1506 1510 1513 1516 1519 1522 1525 1528 1530 1532 1533 1535 1536 1538 1539 1540 1541 1542 1543 1544 1545 1546 1547 1547
1503 1504 1487 1484 1488 1497 1501 1511 1536 1549 1552 1545 1533 1534 1517 1502 1499 1499 1500 1502 1504 1507 1510 1512 1515 1519 1522 1525 1527 1529 1531 1533 1535 1536 1537 1539 1540 1541 1542 1543 1544 1545 1546 1546
1502 1501 1483 1481 1482 1488 1502 1510 1512 1532 1540 1545 1538 1527 1511 1500 1499 1498 1499 1500 1502 1504 1507 1510 1513 1516 1519 1522 1525 1527 1529 1531 1533 1535 1536 1538 1539 1540 1541 1542 1543 1544 1544 1545
1487 1496 1486 1482 1483 1487 1492 1503 1519 1532 1546 1548 1537 1530 1521 1505 1500 1498 1498 1498 1500 1502 1505 1508 1511 1514 1517 1520 1523 1525 1528 1530 1531 1533 1535 1536 1537 1539 1540 1541 1542 1543 1543 1544
1481 1493 1492 1487 1490 1495 1499 1506 1515 1527 1530 1543 1545 1531 1501 1498 1495 1496 1496 1496 1497 1500 1502 1505 1508 1511 1515 1518 1521 1523 1525 1528 1530 1532 1534 1535 1536 1538 1539 1540 1540 1541 1542 1543
1482 1494 1502 1494 1486 1484 1488 1498 1509 1521 1529 1533 1536 1526 1492 1492 1491 1493 1494 1495 1497 1498 1501 1504 1507 1510 1513 1515 1518 1520 1523 1525 1527 1530 1532 1533 1535 1536 1537 1538 1539 1540 1541 1541
1481 1495 1508 1506 1501 1491 1491 1496 1501 1509 1523 1534 1534 1519 1492 1491 1491 1492 1493 1494 1496 1498 1501 1503 1506 1509 1511 1513 1516 1518 1520 1522 1524 1527 1529 1531 1532 1534 1535 1536 1537 1538 1539 1539
1475 1492 1501 1508 1503 1494 1494 1495 1499 1505 1520 1527 1521 1509 1497 1493 1492 1491 1492 1493 1495 1497 1499 1502 1505 1507 1509 1511 1513 1516 1518 1520 1523 1525 1526 1528 1530 1531 1532 1534 1535 1536 1536 1537
1475 1491 1492 1491 1488 1488 1490 1491 1495 1498 1503 1510 1506 1504 1496 1492 1492 1491 1491 1493 1495 1496 1498 1501 1503 1506 1508 1509 1511 1514 1515 1518 1520 1522 1523 1524 1526 1529 1530 1531 1532 1533 1534 1535
1479 1490 1491 1492 1489 1488 1490 1490 1491 1494 1496 1498 1498 1500 1491 1490 1490 1491 1492 1492 1493 1495 1497 1499 1501 1504 1506 1508 1509 1511 1513 1515 1517 1518 1520 1522 1524 1525 1526 1527 1528 1530 1531 1532
1485 1489 1498 1501 1493 1490 1499 1493 1492 1494 1493 1494 1498 1495 1491 1491 1491 1491 1491 1492 1493 1494 1496 1498 1499 1501 1503 1505 1507 1508 1510 1511 1513 1515 1516 1518 1520 1521 1523 1524 1525 1526 1528 1528
1484 1493 1502 1505 1499 1509 1500 1488 1488 1491 1491 1490 1490 1489 1489 1489 1490 1491 1492 1492 1493 1494 1495 1496 1498 1499 1501 1503 1504 1506 1507 1508 1510 1511 1512 1514 1516 1517 1519 1520 1521 1523 1524 1525
1478 1488 1501 1509 1510 1505 1495 1489 1489 1492 1494 1490 1489 1489 1489 1489 1490 1492 1492 1492 1493 1493 1493 1495 1496 1497 1498 1500 1502 1503 1504 1505 1507 1509 1510 1511 1512 1513 1515 1516 1517 1519 1520 1521
1482 1485 1498 1506 1508 1511 1497 1487 1485 1489 1496 1489 1488 1488 1489 1489 1494 1494 1492 1492 1492 1493 1493 1494 1495 1495 1496 1497 1499 1500 1501 1502 1504 1505 1506 1508 1509 1510 1512 1513 1514 1515 1516 1517
1491 1495 1500 1504 1504 1500 1489 1485 1485 1499 1496 1489 1488 1488 1488 1490 1492 1492 1491 1491 1492 1492 1492 1492 1492 1493 1494 1495 1496 1498 1498 1499 1501 1502 1503 1504 1505 1507 1508 1510 1511 1511 1512 1513
1494 1498 1502 1505 1505 1503 1487 1485 1490 1491 1487 1487 1488 1489 1489 1489 1490 1490 1490 1490 1490 1490 1490 1491 1490 1490 1492 1493 1494 1494 1495 1496 1498 1499 1499 1500 1501 1503 1505 1506 1506 1507 1508 1508
1492 1494 1496 1498 1498 1491 1487 1487 1487 1487 1487 1487 1487 1488 1488 1489 1489 1489 1490 1489 1489 1489 1489 1489 1489 1488 1489 1490 1490 1491 1492 1493 1495 1495 1496 1496 1498 1499 1501 1502 1501 1502 1503 1504
1491 1490 1492 1493 1491 1489 1488 1487 1486 1487 1487 1487 1487 1488 1488 1488 1488 1488 1488 1487 1487 1487 1487 1488 1487 1487 1487 1487 1487 1489 1489 1490 1492 1492 1492 1493 1494 1495 1496 1498 1497 1498 1499 1499
1490 1490 1492 1493 1491 1489 1488 1487 1487 1487 1487 1487 1487 1487 1487 1487 1487 1487 1487 1486 1486 1486 1486 1486 1485 1484 1484 1485 1484 1486 1486 1488 1489 1489 1489 1489 1490 1491 1492 1493 1493 1493 1494 1495
1488 1489 1491 1492 1488 1488 1488 1487 1487 1487 1487 1487 1487 1486 1486 1486 1485 1485 1485 1485 1485 1484 1484 1483 1483 1482 1482 1482 1482 1483 1483 1484 1484 1484 1485 1486 1486 1487 1487 1488 1489 1489 1490 1491